| time (UTC) | temp F | wind direction | speed MPH | gust MPH | rain 1hr in | rain 24hr in | rain mn in | humidity % | barometer mb |
| 20260902225537 | 55 | 158 | 4.0 | 5.0 | 0.00 | 0.00 | 0.00 | 97 | 1006.6 |
| 20260902224536 | 55 | 171 | 4.0 | 7.0 | 0.00 | 0.00 | 0.00 | 96 | 1006.6 |
| 20260902223535 | 55 | 177 | 4.0 | 7.0 | 0.00 | 0.00 | 0.00 | 96 | 1006.7 |
| 20260902222534 | 55 | 186 | 4.0 | 7.0 | 0.00 | 0.00 | 0.00 | 96 | 1006.8 |
| 20260902221533 | 56 | 189 | 5.0 | 7.0 | 0.00 | 0.00 | 0.00 | 95 | 1006.8 |
| 20260902220532 | 56 | 191 | 5.0 | 7.0 | 0.00 | 0.00 | 0.00 | 95 | 1006.8 |
| 20260902215531 | 55 | 192 | 5.0 | 8.0 | 0.00 | 0.00 | 0.00 | 95 | 1006.9 |
| 20260902214609 | 55 | 190 | 4.0 | 7.0 | 0.00 | 0.00 | 0.00 | 94 | 1006.9 |
| 20260902213708 | 56 | 190 | 4.0 | 7.0 | 0.00 | 0.00 | 0.00 | 93 | 1007.0 |
| 20260902212529 | 56 | 188 | 4.0 | 7.0 | 0.00 | 0.00 | 0.00 | 92 | 1007.1 |
| 20260902211527 | 56 | 183 | 4.0 | 6.0 | 0.00 | 0.00 | 0.00 | 91 | 1007.1 |
| 20260902210527 | 56 | 187 | 3.0 | 6.0 | 0.00 | 0.00 | 0.00 | 91 | 1007.2 |
| 20260902205526 | 57 | 206 | 4.0 | 7.0 | 0.00 | 0.00 | 0.00 | 89 | 1007.2 |
| 20260902204524 | 57 | 216 | 5.0 | 8.0 | 0.00 | 0.00 | 0.00 | 88 | 1007.3 |
| 20260902203524 | 57 | 209 | 5.0 | 7.0 | 0.00 | 0.00 | 0.00 | 89 | 1007.3 |
| 20260902202522 | 57 | 206 | 5.0 | 8.0 | 0.00 | 0.00 | 0.00 | 87 | 1007.3 |
| 20260902201522 | 57 | 204 | 6.0 | 10.0 | 0.00 | 0.00 | 0.00 | 87 | 1007.4 |
| 20260902200520 | 57 | 216 | 7.0 | 10.0 | 0.00 | 0.00 | 0.00 | 87 | 1007.4 |
| 20260902195520 | 57 | 211 | 8.0 | 13.0 | 0.00 | 0.00 | 0.00 | 88 | 1007.4 |
| 20260902194519 | 57 | 203 | 7.0 | 15.0 | 0.00 | 0.00 | 0.00 | 87 | 1007.4 |
| 20260902193518 | 57 | 208 | 7.0 | 11.0 | 0.00 | 0.00 | 0.00 | 87 | 1007.4 |
| 20260902192537 | 58 | 208 | 9.0 | 14.0 | 0.00 | 0.00 | 0.00 | 87 | 1007.4 |
| 20260902191546 | 58 | 201 | 7.0 | 12.0 | 0.00 | 0.00 | 0.00 | 88 | 1007.4 |
| 20260902190545 | 58 | 198 | 5.0 | 9.0 | 0.00 | 0.00 | 0.00 | 88 | 1007.3 |
| 20260902185544 | 58 | 204 | 6.0 | 10.0 | 0.00 | 0.00 | 0.00 | 88 | 1007.3 |
| 20260902184543 | 58 | 212 | 7.0 | 11.0 | 0.00 | 0.00 | 0.00 | 87 | 1007.3 |
| 20260902183542 | 58 | 212 | 7.0 | 10.0 | 0.00 | 0.00 | 0.00 | 87 | 1007.4 |
| 20260902182541 | 59 | 202 | 6.0 | 10.0 | 0.00 | 0.00 | 0.00 | 85 | 1007.4 |
| 20260902181541 | 59 | 200 | 6.0 | 10.0 | 0.00 | 0.00 | 0.00 | 83 | 1007.4 |
| 20260902180540 | 59 | 201 | 6.0 | 11.0 | 0.00 | 0.00 | 0.00 | 81 | 1007.4 |
| 20260902175539 | 60 | 206 | 7.0 | 12.0 | 0.00 | 0.00 | 0.00 | 78 | 1007.4 |
| 20260902174618 | 60 | 210 | 6.0 | 12.0 | 0.00 | 0.00 | 0.00 | 75 | 1007.5 |
| 20260902173537 | 61 | 207 | 7.0 | 9.0 | 0.00 | 0.00 | 0.00 | 72 | 1007.5 |
| 20260902172536 | 61 | 211 | 7.0 | 8.0 | 0.00 | 0.00 | 0.00 | 70 | 1007.4 |
| 20260902171535 | 62 | 204 | 6.0 | 8.0 | 0.00 | 0.00 | 0.00 | 70 | 1007.3 |
| 20260902170534 | 62 | 196 | 5.0 | 8.0 | 0.00 | 0.00 | 0.00 | 68 | 1007.2 |
| 20260902165533 | 63 | 206 | 5.0 | 8.0 | 0.00 | 0.00 | 0.00 | 65 | 1007.2 |
| 20260902164552 | 63 | 225 | 6.0 | 9.0 | 0.00 | 0.00 | 0.00 | 64 | 1007.2 |
| 20260902163531 | 64 | 229 | 6.0 | 9.0 | 0.00 | 0.00 | 0.00 | 61 | 1007.2 |
| 20260902162530 | 65 | 227 | 8.0 | 10.0 | 0.00 | 0.00 | 0.00 | 60 | 1007.2 |
| 20260902161529 | 65 | 221 | 8.0 | 12.0 | 0.00 | 0.00 | 0.00 | 59 | 1007.1 |
| 20260902160528 | 66 | 230 | 8.0 | 12.0 | 0.00 | 0.00 | 0.00 | 61 | 1007.2 |
| 20260902155527 | 66 | 233 | 9.0 | 13.0 | 0.00 | 0.00 | 0.00 | 61 | 1007.2 |
| 20260902154526 | 66 | 226 | 10.0 | 14.0 | 0.00 | 0.00 | 0.00 | 60 | 1007.3 |
| 20260902153526 | 67 | 229 | 10.0 | 15.0 | 0.00 | 0.00 | 0.00 | 59 | 1007.3 |
| 20260902152524 | 67 | 227 | 8.0 | 15.0 | 0.00 | 0.00 | 0.00 | 58 | 1007.3 |
| 20260902151545 | 67 | 233 | 8.0 | 12.0 | 0.00 | 0.00 | 0.00 | 58 | 1007.3 |
| 20260902150522 | 67 | 246 | 8.0 | 12.0 | 0.00 | 0.00 | 0.00 | 57 | 1007.3 |
| 20260902145601 | 67 | 249 | 10.0 | 16.0 | 0.00 | 0.00 | 0.00 | 55 | 1007.3 |
| 20260902144520 | 68 | 246 | 8.0 | 14.0 | 0.00 | 0.00 | 0.00 | 56 | 1007.3 |
| 20260902143519 | 67 | 239 | 9.0 | 13.0 | 0.00 | 0.00 | 0.00 | 57 | 1007.4 |
| 20260902142538 | 68 | 245 | 8.0 | 13.0 | 0.00 | 0.00 | 0.00 | 55 | 1007.4 |
| 20260902141517 | 69 | 233 | 9.0 | 17.0 | 0.00 | 0.00 | 0.00 | 53 | 1007.3 |
| 20260902140516 | 68 | 241 | 8.0 | 13.0 | 0.00 | 0.00 | 0.00 | 54 | 1007.3 |
| 20260902135545 | 68 | 261 | 5.0 | 13.0 | 0.00 | 0.00 | 0.00 | 54 | 1007.3 |
| 20260902134604 | 67 | 241 | 8.0 | 14.0 | 0.00 | 0.00 | 0.00 | 56 | 1007.4 |
| 20260902133543 | 68 | 247 | 9.0 | 16.0 | 0.00 | 0.00 | 0.00 | 53 | 1007.4 |
| 20260902132542 | 68 | 246 | 7.0 | 12.0 | 0.00 | 0.00 | 0.00 | 53 | 1007.5 |
| 20260902131541 | 68 | 253 | 9.0 | 12.0 | 0.00 | 0.00 | 0.00 | 54 | 1007.5 |
| 20260902130540 | 68 | 272 | 7.0 | 12.0 | 0.00 | 0.00 | 0.00 | 53 | 1007.5 |
| 20260902125539 | 68 | 251 | 8.0 | 15.0 | 0.00 | 0.00 | 0.00 | 54 | 1007.5 |
| 20260902124538 | 67 | 270 | 8.0 | 17.0 | 0.00 | 0.00 | 0.00 | 55 | 1007.6 |
| 20260902123557 | 67 | 261 | 9.0 | 17.0 | 0.00 | 0.00 | 0.00 | 54 | 1007.6 |
| 20260902122536 | 66 | 266 | 9.0 | 14.0 | 0.00 | 0.00 | 0.00 | 54 | 1007.6 |
| 20260902121537 | 67 | 253 | 9.0 | 14.0 | 0.00 | 0.00 | 0.00 | 55 | 1007.6 |
| 20260902120535 | 67 | 258 | 8.0 | 13.0 | 0.00 | 0.00 | 0.00 | 55 | 1007.6 |
| 20260902115554 | 67 | 251 | 7.0 | 13.0 | 0.00 | 0.00 | 0.00 | 55 | 1007.7 |
| 20260902114533 | 67 | 245 | 5.0 | 12.0 | 0.00 | 0.00 | 0.00 | 55 | 1007.7 |
| 20260902113532 | 67 | 261 | 7.0 | 12.0 | 0.00 | 0.00 | 0.00 | 57 | 1007.8 |
| 20260902112531 | 66 | 279 | 6.0 | 12.0 | 0.00 | 0.00 | 0.00 | 57 | 1007.8 |
| 20260902111530 | 66 | 273 | 5.0 | 10.0 | 0.00 | 0.00 | 0.00 | 58 | 1007.9 |
| 20260902110529 | 65 | 285 | 6.0 | 12.0 | 0.00 | 0.00 | 0.00 | 59 | 1007.9 |
| 20260902105528 | 65 | 254 | 7.0 | 12.0 | 0.00 | 0.00 | 0.00 | 57 | 1008.0 |
| 20260902104527 | 65 | 257 | 6.0 | 12.0 | 0.00 | 0.00 | 0.00 | 59 | 1008.0 |
| 20260902103526 | 64 | 264 | 5.0 | 10.0 | 0.00 | 0.00 | 0.00 | 61 | 1008.0 |
| 20260902102525 | 64 | 280 | 6.0 | 10.0 | 0.00 | 0.00 | 0.00 | 59 | 1008.0 |
| 20260902101524 | 64 | 284 | 5.0 | 10.0 | 0.00 | 0.00 | 0.00 | 58 | 1008.0 |
| 20260902100524 | 63 | 284 | 4.0 | 8.0 | 0.00 | 0.00 | 0.00 | 63 | 1007.9 |
| 20260902095522 | 63 | 306 | 4.0 | 9.0 | 0.00 | 0.00 | 0.00 | 65 | 1007.9 |
| 20260902094522 | 62 | 287 | 5.0 | 9.0 | 0.00 | 0.00 | 0.00 | 66 | 1007.9 |
| 20260902093540 | 62 | 308 | 3.0 | 7.0 | 0.00 | 0.00 | 0.00 | 67 | 1007.9 |
| 20260902092519 | 61 | 292 | 3.0 | 7.0 | 0.00 | 0.00 | 0.00 | 69 | 1008.0 |
| 20260902091518 | 61 | 303 | 4.0 | 8.0 | 0.00 | 0.00 | 0.00 | 69 | 1008.0 |
| 20260902090519 | 61 | 291 | 3.0 | 8.0 | 0.00 | 0.00 | 0.00 | 71 | 1008.0 |
| 20260902085518 | 60 | 309 | 3.0 | 7.0 | 0.00 | 0.00 | 0.00 | 71 | 1008.0 |
| 20260902084607 | 59 | 296 | 4.0 | 7.0 | 0.00 | 0.00 | 0.00 | 73 | 1008.1 |
| 20260902083546 | 60 | 312 | 3.0 | 6.0 | 0.00 | 0.00 | 0.00 | 74 | 1008.0 |
| 20260902082544 | 58 | 300 | 3.0 | 6.0 | 0.00 | 0.00 | 0.00 | 76 | 1008.0 |
| 20260902081604 | 58 | 299 | 3.0 | 6.0 | 0.00 | 0.00 | 0.00 | 77 | 1007.9 |
| 20260902080543 | 58 | 350 | 4.0 | 8.0 | 0.00 | 0.00 | 0.00 | 78 | 1007.9 |
| 20260902075542 | 57 | 335 | 5.0 | 7.0 | 0.00 | 0.00 | 0.00 | 80 | 1007.9 |
| 20260902074601 | 56 | 288 | 5.0 | 7.0 | 0.00 | 0.00 | 0.00 | 82 | 1007.8 |
| 20260902073600 | 56 | 298 | 4.0 | 7.0 | 0.00 | 0.00 | 0.00 | 82 | 1007.8 |
| 20260902072539 | 56 | 304 | 4.0 | 9.0 | 0.00 | 0.00 | 0.00 | 83 | 1007.8 |
| 20260902071558 | 56 | 304 | 4.0 | 9.0 | 0.00 | 0.00 | 0.00 | 86 | 1007.7 |
| 20260902070537 | 55 | 299 | 4.0 | 9.0 | 0.00 | 0.00 | 0.00 | 86 | 1007.6 |
| 20260902065536 | 54 | 285 | 4.0 | 8.0 | 0.00 | 0.00 | 0.00 | 89 | 1007.6 |
| 20260902064535 | 54 | 285 | 5.0 | 8.0 | 0.00 | 0.00 | 0.00 | 90 | 1007.5 |
| 20260902063534 | 54 | 309 | 5.0 | 8.0 | 0.00 | 0.00 | 0.00 | 90 | 1007.5 |
| 20260902062532 | 53 | 328 | 5.0 | 9.0 | 0.00 | 0.00 | 0.00 | 90 | 1007.4 |
| 20260902061532 | 53 | 322 | 4.0 | 8.0 | 0.00 | 0.00 | 0.00 | 91 | 1007.4 |
| 20260902060530 | 52 | 330 | 6.0 | 10.0 | 0.00 | 0.00 | 0.00 | 92 | 1007.4 |
| 20260902055529 | 52 | 333 | 6.0 | 11.0 | 0.00 | 0.00 | 0.00 | 93 | 1007.4 |
| 20260902054528 | 52 | 331 | 6.0 | 11.0 | 0.00 | 0.00 | 0.00 | 94 | 1007.3 |
| 20260902053528 | 52 | 324 | 6.0 | 10.0 | 0.00 | 0.00 | 0.00 | 96 | 1007.3 |
| 20260902052526 | 52 | 312 | 4.0 | 9.0 | 0.00 | 0.00 | 0.00 | 97 | 1007.2 |
| 20260902051525 | 52 | 325 | 4.0 | 9.0 | 0.00 | 0.00 | 0.00 | 98 | 1007.3 |
| 20260902050524 | 51 | 304 | 5.0 | 11.0 | 0.00 | 0.00 | 0.00 | 99 | 1007.3 |
| 20260902045523 | 51 | 319 | 5.0 | 10.0 | 0.00 | 0.00 | 0.00 | 99 | 1007.3 |
| 20260902044524 | 51 | 313 | 5.0 | 11.0 | 0.00 | 0.00 | 0.00 | 99 | 1007.3 |
| 20260902043523 | 51 | 327 | 6.0 | 11.0 | 0.00 | 0.00 | 0.00 | 99 | 1007.3 |
| 20260902042522 | 52 | 306 | 5.0 | 10.0 | 0.00 | 0.00 | 0.00 | 99 | 1007.2 |
| 20260902041521 | 52 | 314 | 5.0 | 10.0 | 0.00 | 0.00 | 0.00 | 99 | 1007.2 |
| 20260902040520 | 52 | 285 | 4.0 | 9.0 | 0.00 | 0.00 | 0.00 | 99 | 1007.2 |
| 20260902035519 | 52 | 270 | 5.0 | 8.0 | 0.00 | 0.00 | 0.00 | 99 | 1007.2 |
| 20260902034518 | 52 | 264 | 6.0 | 10.0 | 0.00 | 0.00 | 0.00 | 99 | 1007.1 |
| 20260902033517 | 52 | 279 | 5.0 | 10.0 | 0.00 | 0.00 | 0.00 | 99 | 1007.0 |
| 20260902032546 | 52 | 282 | 4.0 | 7.0 | 0.00 | 0.00 | 0.00 | 99 | 1007.0 |
| 20260902031545 | 53 | 281 | 6.0 | 9.0 | 0.00 | 0.00 | 0.00 | 99 | 1007.0 |
| 20260902030544 | 53 | 273 | 5.0 | 8.0 | 0.00 | 0.00 | 0.00 | 99 | 1006.9 |
| 20260902025542 | 53 | 271 | 5.0 | 8.0 | 0.00 | 0.00 | 0.00 | 99 | 1007.0 |
| 20260902024542 | 54 | 273 | 5.0 | 7.0 | 0.00 | 0.00 | 0.00 | 99 | 1007.0 |
| 20260902023542 | 54 | 269 | 5.0 | 8.0 | 0.00 | 0.00 | 0.00 | 99 | 1006.9 |
| 20260902022540 | 54 | 263 | 5.0 | 7.0 | 0.00 | 0.00 | 0.00 | 99 | 1006.9 |
| 20260902021539 | 54 | 270 | 4.0 | 6.0 | 0.00 | 0.00 | 0.00 | 99 | 1006.9 |
| 20260902020538 | 54 | 268 | 4.0 | 6.0 | 0.00 | 0.00 | 0.00 | 99 | 1006.9 |
| 20260902015538 | 55 | 269 | 4.0 | 6.0 | 0.00 | 0.00 | 0.00 | 99 | 1006.9 |
| 20260902014616 | 55 | 283 | 4.0 | 8.0 | 0.00 | 0.00 | 0.00 | 99 | 1006.9 |
| 20260902013615 | 55 | 282 | 4.0 | 8.0 | 0.00 | 0.00 | 0.00 | 99 | 1006.9 |
| 20260902012534 | 55 | 283 | 4.0 | 7.0 | 0.00 | 0.00 | 0.00 | 99 | 1006.9 |
| 20260902011533 | 55 | 280 | 3.0 | 6.0 | 0.00 | 0.00 | 0.00 | 99 | 1006.8 |
| 20260902010532 | 55 | 277 | 3.0 | 6.0 | 0.00 | 0.00 | 0.00 | 99 | 1006.9 |
| 20260902005531 | 55 | 266 | 3.0 | 6.0 | 0.00 | 0.00 | 0.00 | 99 | 1006.8 |
| 20260902004610 | 55 | 266 | 4.0 | 7.0 | 0.00 | 0.00 | 0.00 | 99 | 1006.9 |
| 20260902003529 | 56 | 266 | 4.0 | 5.0 | 0.00 | 0.00 | 0.00 | 99 | 1006.9 |
| 20260902002528 | 56 | 267 | 4.0 | 5.0 | 0.00 | 0.00 | 0.00 | 99 | 1006.8 |
| 20260902001547 | 56 | 273 | 3.0 | 6.0 | 0.00 | 0.00 | 0.00 | 99 | 1006.8 |
| 20260902000528 | 56 | 279 | 3.0 | 5.0 | 0.00 | 0.00 | 0.00 | 99 | 1006.8 |
| 20260901235526 | 56 | 267 | 3.0 | 5.0 | 0.00 | 0.00 | 0.00 | 98 | 1006.8 |
| 20260901234525 | 56 | 274 | 3.0 | 5.0 | 0.00 | 0.00 | 0.00 | 99 | 1006.9 |
| 20260901233524 | 56 | 278 | 3.0 | 5.0 | 0.00 | 0.00 | 0.00 | 99 | 1007.0 |
| 20260901232543 | 56 | 273 | 3.0 | 6.0 | 0.00 | 0.00 | 0.00 | 98 | 1007.1 |
| 20260901231522 | 56 | 268 | 4.0 | 7.0 | 0.00 | 0.00 | 0.00 | 98 | 1007.1 |
| 20260901230521 | 56 | 273 | 4.0 | 7.0 | 0.00 | 0.00 | 0.00 | 98 | 1007.1 |